Theta_e
302 301 301 302 303 303 303 303 303 303 303 304 304 305 305 304 307 306 306 307 309 307 308 309 309 309 308 305 306 304 308 309 310 311 312 306 311 308 307 309 309 308 307 308 306
302 301 301 301 302 303 303 303 303 303 303 305 304 304 304 304 307 306 307 307 308 307 309 308 307 307 304 306 304 307 307 309 306 307 306 306 307 307 308 306 306 309 306 306 305
302 301 301 301 301 301 301 301 302 302 303 304 305 304 304 304 308 306 307 308 308 307 308 308 307 308 307 306 304 305 308 307 307 306 306 307 307 306 307 307 304 306 306 304 304
302 302 302 302 301 300 301 301 301 302 303 304 305 304 304 308 307 307 307 308 308 308 308 308 307 307 306 307 306 308 306 306 307 307 307 307 306 306 304 305 305 303 305 305 303
303 303 304 303 302 301 301 302 302 303 303 304 305 305 307 304 305 307 307 308 308 308 308 308 308 306 306 307 306 307 307 307 307 306 306 305 305 304 302 301 301 303 305 304 302
303 304 304 305 304 302 301 302 302 303 303 304 305 305 307 305 307 307 307 308 309 308 308 307 307 306 306 307 305 306 306 306 306 306 306 306 305 304 304 302 303 303 304 303 302
303 304 305 305 305 304 301 301 302 302 303 304 304 306 305 306 307 307 307 307 308 309 307 308 307 306 305 306 305 305 307 306 306 306 306 304 303 304 303 303 304 303 303 303 302
303 304 305 306 306 305 301 301 302 303 304 304 304 306 303 306 307 307 307 307 307 308 308 307 307 304 305 304 304 306 304 303 305 305 305 303 302 300 302 303 303 302 300 300 299
304 304 305 306 306 306 301 301 302 304 303 303 305 304 303 306 306 306 306 306 306 308 308 308 306 305 304 306 305 302 303 305 303 305 305 305 303 302 302 303 302 300 300 298 298
306 304 304 305 307 307 301 302 304 304 305 303 305 303 303 305 305 306 306 307 306 306 305 306 301 302 302 303 305 306 303 302 303 303 305 304 304 303 302 300 300 298 297 297 298
310 306 305 305 307 307 302 304 303 302 304 302 303 303 304 304 305 304 305 307 305 303 304 305 306 304 305 305 304 304 304 304 302 304 303 302 301 301 301 299 298 298 298 298 298
311 310 306 305 307 308 302 303 302 303 301 302 303 303 304 304 305 303 305 306 306 303 306 303 304 305 305 305 306 305 305 303 300 302 303 301 303 302 301 301 301 301 299 299 299
312 311 308 306 307 307 302 303 305 306 303 302 303 302 303 305 304 303 304 305 305 305 306 304 305 305 306 304 305 306 305 303 303 302 302 301 300 297 302 302 303 302 300 300 299
313 311 310 307 307 304 305 304 305 307 302 304 302 303 304 302 303 303 303 304 303 305 303 305 304 305 305 306 303 302 304 304 305 303 301 299 301 301 300 301 302 301 300 299 298
314 312 310 307 305 305 305 306 304 307 303 303 301 302 302 302 301 302 303 303 303 304 302 305 304 305 305 306 304 303 304 304 305 305 304 303 301 301 298 304 303 299 299 297 297
315 313 311 309 308 306 306 304 307 305 303 301 302 304 305 304 304 303 303 301 301 302 302 304 302 303 304 303 304 304 304 302 302 302 298 304 298 301 299 303 301 299 297 299 298
315 313 311 309 305 306 304 306 305 302 302 303 302 305 304 305 304 303 304 303 303 303 302 303 303 302 303 305 304 303 301 302 306 301 303 301 301 302 300 299 299 299 298 297 297
317 314 312 310 308 305 306 306 300 299 304 303 304 305 305 305 304 304 302 303 302 302 299 307 309 303 302 304 305 302 301 303 301 302 300 299 303 303 299 297 297 297 297 297 298
317 313 311 309 308 304 305 305 303 302 304 304 304 306 305 305 305 303 302 302 302 301 310 304 304 301 302 303 301 303 305 300 297 291 300 301 299 299 300 299 298 298 297 297 297
314 309 309 310 308 305 305 305 301 303 303 303 309 306 307 305 306 304 302 302 304 301 301 303 304 300 301 302 301 302 301 303 300 302 302 302 301 302 302 301 299 298 297 297 297
312 313 308 309 307 305 306 303 302 302 303 304 307 305 306 305 305 305 304 304 302 300 300 298 305 301 298 300 302 301 301 300 301 301 301 300 308 299 301 298 298 296 295 296 296
310 315 304 307 305 304 307 302 304 304 306 304 305 306 306 304 305 305 305 305 299 298 301 300 304 301 300 298 298 301 300 300 305 302 297 300 303 302 300 298 297 296 296 296 296
308 304 303 304 309 306 300 304 304 307 306 305 308 308 305 305 306 304 305 300 299 298 300 299 301 302 306 302 297 302 302 299 300 299 298 302 307 301 301 299 298 297 297 296 296
302 303 298 299 303 306 303 303 306 305 306 305 307 309 308 307 306 305 304 301 299 300 301 302 297 309 315 313 302 297 300 301 300 298 300 301 303 303 301 300 301 299 297 296 294
300 301 298 305 303 305 305 303 306 306 305 305 306 309 309 308 304 305 303 302 301 303 299 300 304 293 294 301 301 301 298 300 298 300 303 308 301 309 303 302 301 299 298 296 295
299 299 296 300 305 305 304 306 306 306 304 305 307 307 309 310 310 308 304 303 304 301 298 298 303 297 301 293 297 300 300 299 299 296 297 300 303 305 304 301 297 299 298 298 297
297 300 300 304 303 306 306 306 305 305 304 306 305 308 310 311 308 305 301 302 302 301 298 301 300 304 308 293 298 308 309 302 299 299 302 303 310 306 305 303 302 300 299 299 298
Wind_Speed
5 6 6 5 4 4 5 5 6 7 6 5 3 3 6 6 6 1 4 5 5 6 7 4 3 3 3 4 4 3 3 3 4 6 3 1 2 2 1 1 2 4 4 3 4
6 5 7 6 5 5 5 5 6 6 6 5 6 7 5 5 3 5 6 8 6 4 2 5 3 4 4 3 3 4 3 5 3 4 3 2 2 1 0 1 4 3 4 5 5
6 6 6 7 6 5 5 5 6 7 6 5 6 7 5 5 2 1 8 7 4 1 1 2 2 2 4 3 4 0 3 2 2 2 2 2 2 2 3 5 8 6 4 6 7
7 7 7 7 6 6 6 7 6 5 6 6 6 5 2 1 3 2 8 5 2 0 2 2 2 3 3 2 2 1 1 1 2 1 1 2 2 4 7 7 5 7 4 4 6
8 7 8 8 8 7 7 6 6 4 4 6 5 2 0 1 3 4 7 4 3 1 4 2 2 3 4 3 1 2 1 1 1 0 3 3 6 6 9 11 7 6 5 6 7
9 8 8 10 9 9 7 6 5 4 4 5 4 3 1 2 1 5 5 3 5 2 3 4 3 3 5 2 2 2 2 1 1 3 2 3 4 4 5 1 2 5 8 6 8
9 9 8 10 10 10 7 5 5 5 4 3 3 2 1 4 2 4 5 6 8 3 4 4 5 4 3 3 3 3 1 3 2 1 3 1 7 9 5 3 5 6 6 7 9
10 10 9 10 11 11 8 6 4 3 3 2 1 0 4 1 2 3 2 3 7 7 12 9 11 7 3 2 5 3 4 4 0 2 3 4 9 2 3 2 9 7 6 8 9
10 11 10 10 11 11 8 7 2 2 1 2 2 1 5 1 1 4 5 2 3 6 8 6 6 4 4 3 3 6 1 1 6 2 2 2 8 4 0 2 8 8 7 8 8
11 11 11 10 11 12 9 2 1 1 1 2 2 3 0 2 0 2 1 3 1 4 4 6 5 4 3 3 3 2 1 3 5 2 2 5 19 15 12 7 11 8 7 8 7
12 11 11 9 10 11 5 0 3 2 1 4 1 2 1 1 1 4 3 2 1 7 3 4 4 2 2 0 3 4 2 3 4 3 4 5 12 17 12 6 9 8 8 8 7
13 12 11 9 9 9 5 1 2 2 5 3 1 1 2 3 2 1 2 3 2 3 1 4 1 2 2 1 2 2 0 4 5 2 3 6 20 11 5 5 4 5 7 8 4
15 12 10 9 9 9 6 5 1 1 1 3 4 3 3 5 2 4 2 2 3 4 0 4 2 2 2 2 1 0 2 1 2 8 1 8 7 6 2 3 2 2 4 4 5
16 13 10 7 6 3 4 5 4 3 4 4 4 4 3 5 1 0 1 3 4 5 3 4 1 3 2 2 1 3 1 2 2 5 3 4 5 5 5 8 4 5 6 7 7
18 15 12 10 0 3 2 4 5 2 2 1 2 2 1 5 6 2 2 2 6 5 4 3 4 3 2 2 1 1 1 1 2 2 3 4 3 7 4 4 4 6 6 6 6
21 17 14 10 9 4 1 6 1 6 7 2 3 5 5 1 3 3 1 6 4 5 5 2 1 2 2 2 3 3 2 3 3 2 3 3 3 5 2 3 5 3 6 6 6
26 22 21 11 3 9 7 3 4 5 3 4 5 5 2 4 3 4 4 4 6 5 2 3 1 1 1 3 1 2 2 4 6 4 4 1 2 9 5 4 5 6 8 7 5
31 28 25 19 11 9 7 4 4 4 6 3 4 3 6 6 3 5 5 4 3 4 3 6 4 1 2 1 2 1 2 5 4 1 5 1 5 4 5 5 7 7 7 6 5
35 32 28 25 15 12 3 4 8 8 6 10 4 4 3 3 4 4 7 5 9 11 7 5 1 2 3 1 2 2 1 3 7 1 3 3 7 8 4 8 6 8 6 8 6
27 17 17 31 23 10 2 12 7 5 6 3 9 5 9 8 6 6 9 5 6 6 2 5 4 2 1 0 3 1 4 3 3 0 4 5 6 5 4 5 5 7 9 7 4
11 5 18 36 28 3 9 9 7 6 5 6 7 6 5 8 7 6 6 2 4 5 3 5 3 3 2 4 6 1 1 3 2 3 4 1 6 7 7 7 7 7 8 7 6
6 4 24 45 6 3 14 7 5 5 3 5 4 3 8 10 8 7 10 3 7 9 9 6 5 4 5 2 1 1 3 4 4 4 1 2 7 1 6 5 5 9 8 6 4
2 2 14 10 11 12 4 4 4 5 6 7 7 5 3 7 3 6 5 2 4 7 8 8 1 3 5 2 3 4 5 4 4 3 5 5 6 3 5 6 7 9 9 7 5
1 3 2 2 3 20 10 7 11 5 5 5 4 4 4 2 3 6 3 1 2 1 2 6 3 6 7 5 6 3 5 5 5 3 4 6 9 9 7 7 8 9 9 9 7
2 3 2 6 11 10 15 11 13 11 5 7 4 7 8 4 2 4 3 2 2 2 2 3 5 4 3 3 2 4 5 9 8 6 7 5 10 18 6 7 8 7 8 7 8
4 2 2 3 10 16 11 20 25 22 11 7 7 13 7 7 8 8 7 5 5 3 6 2 3 3 2 4 4 1 4 8 7 3 9 8 21 14 18 7 6 9 8 9 8
6 7 2 2 5 11 19 24 22 15 14 15 14 13 11 7 4 5 7 6 4 10 8 7 6 3 4 2 3 3 9 13 5 6 10 9 20 6 7 6 7 9 9 10 9
Wind_Direction
341 348 350 354 349 322 328 335 333 341 338 317 310 312 330 347 12 6 47 338 323 340 337 347 40 81 49 60 56 132 69 197 214 157 235 161 149 185 123 207 230 207 185 234 181
325 344 333 346 342 332 317 320 323 326 330 324 309 301 310 341 350 55 3 343 324 337 11 59 15 30 39 27 18 85 127 223 169 174 187 194 176 205 330 257 259 249 240 219 207
318 327 330 338 338 328 322 322 322 320 321 329 326 308 287 337 326 273 344 335 312 332 92 74 82 70 64 27 3 59 184 171 200 190 164 187 268 199 193 255 216 199 223 212 227
311 320 326 333 333 328 332 329 317 311 312 324 329 317 286 315 241 328 341 343 312 201 127 102 61 66 82 93 343 82 105 198 191 308 95 238 317 276 201 233 178 205 195 164 221
302 313 317 326 334 331 330 332 316 297 301 324 334 345 302 344 259 339 351 13 69 98 72 73 96 117 131 116 84 80 177 36 39 124 273 314 263 252 259 250 254 257 202 218 240
289 302 315 319 330 333 335 337 330 303 291 321 333 334 351 285 351 351 13 60 76 115 74 61 139 119 105 87 95 113 109 116 282 289 272 273 269 20 290 165 262 219 243 250 253
282 292 308 314 323 329 328 329 324 311 291 304 331 349 7 247 327 4 32 48 60 109 106 86 118 74 115 101 158 123 11 321 224 300 315 354 274 231 252 323 287 249 263 263 256
278 285 298 311 318 325 326 317 304 284 276 264 288 347 235 268 329 29 39 58 79 87 96 86 97 102 66 132 31 54 57 17 42 21 353 27 279 310 12 247 272 279 283 276 277
269 280 291 306 316 321 322 315 280 244 258 240 163 120 284 212 326 28 12 33 84 87 77 89 73 83 41 91 29 15 251 243 326 44 295 146 274 268 152 62 281 283 278 282 285
267 271 287 300 313 321 322 309 285 234 180 160 85 44 328 215 186 74 330 52 24 98 38 36 51 77 36 77 222 214 332 274 239 326 293 248 262 269 273 271 261 275 287 283 281
264 272 276 295 305 321 334 198 35 353 231 211 194 143 183 197 112 57 340 106 337 46 97 1 72 223 187 135 124 130 161 262 273 48 325 252 277 283 285 241 260 266 264 270 270
257 264 274 284 294 308 309 195 179 167 299 194 221 237 201 159 119 61 302 150 109 108 72 27 179 160 130 67 109 100 148 291 282 41 2 329 296 281 292 268 236 252 253 254 258
249 250 261 271 294 292 240 233 343 119 225 228 198 194 196 149 165 174 297 140 108 104 174 156 163 155 142 51 111 178 198 190 223 326 197 311 295 343 315 326 304 226 246 252 242
243 243 237 251 280 272 252 249 211 131 50 234 223 242 137 128 181 272 312 126 42 139 120 94 206 170 119 111 117 253 163 112 43 28 291 6 278 314 338 314 295 289 262 260 268
235 232 223 216 220 231 311 182 170 99 10 188 170 141 197 143 127 342 355 34 136 124 123 205 166 167 136 129 91 285 344 65 80 58 346 351 71 272 354 317 303 339 324 277 262
227 219 207 215 237 237 190 153 189 51 245 285 128 179 131 114 111 140 73 48 135 100 47 91 330 17 107 112 99 142 119 43 56 66 25 282 115 287 242 237 307 327 325 306 299
217 210 203 193 202 201 172 111 51 169 311 210 193 174 184 149 142 161 164 155 146 101 212 4 47 10 45 104 58 130 56 344 358 12 219 350 352 246 256 253 237 280 299 303 309
231 202 201 198 221 169 148 65 196 233 200 129 124 109 188 161 177 154 134 191 242 100 109 147 297 161 9 2 167 161 160 146 214 275 276 66 241 244 213 271 257 260 265 287 298
235 188 187 191 183 175 97 197 208 200 166 142 93 124 233 224 149 147 192 203 200 176 160 134 318 318 49 21 72 209 64 139 103 53 38 263 283 302 269 275 268 274 284 272 277
199 174 190 182 163 142 98 234 214 188 138 157 175 166 176 181 165 192 175 199 190 184 134 190 86 312 358 113 33 55 149 77 9 42 300 293 285 243 254 239 263 268 264 277 269
225 184 168 168 149 113 213 224 212 213 155 163 191 147 178 175 177 198 201 243 139 138 103 136 105 288 18 209 176 104 34 51 109 125 173 277 274 216 220 211 226 254 269 269 265
156 220 169 153 147 184 221 194 189 181 149 226 156 144 175 169 174 205 208 241 155 155 162 190 121 135 210 256 324 313 210 168 128 241 69 139 272 275 247 278 283 277 280 276 242
140 91 187 208 182 200 227 231 240 160 179 184 205 205 179 167 159 189 190 348 146 159 161 180 283 72 350 11 359 224 197 150 103 81 204 143 263 347 298 282 265 268 278 278 262
84 148 258 256 248 201 187 215 212 211 190 170 169 134 127 113 24 171 141 64 170 156 80 103 102 158 184 180 127 174 198 174 140 128 191 224 274 291 270 270 278 279 271 278 268
112 231 211 202 220 209 194 175 201 206 222 169 200 212 164 135 78 146 99 107 42 164 60 145 178 109 314 28 132 161 166 176 191 193 180 250 228 262 250 230 253 257 278 285 280
172 197 181 280 222 206 201 214 207 200 170 214 202 189 185 165 185 184 148 196 184 178 167 181 170 121 3 5 42 271 197 194 227 251 271 279 277 269 271 242 277 271 278 280 275
188 209 167 202 216 199 211 213 214 185 220 218 193 175 190 204 103 84 93 84 150 154 173 149 140 116 239 17 86 334 226 192 195 213 206 218 248 277 258 237 255 270 261 264 264